Location: Litvinovka
(48.6667°N, 34.3500°E)
Time: 19:18:41
(UTC+00:00)

MetOp-B - Pass Details

Date: 18 September 2020
Orbit: 819 x 821 km, 98.7° (Epoch: 22 October)

Event Time Altitude Azimuth Distance (km) Brightness Sun altitude
Exits shadow 17:59:41 45° 103° (ESE) 1,105 4.3 -21.5°
Maximum altitude 18:00:40 52° 68° (ENE) 1,022 4.3 -21.7°
Drops below altitude 10° 18:05:52 10° 354° (N) 2,428 7.0 -22.4°
Sets 18:08:16 0° 350° (N) 3,364 7.9 -22.7°
